[[{"header":{"parameterUnit":"m.s-1","parameterCategory":1,"la1":30.2991,"la2":30.254,"lo1":-89.0895,"lo2":-89.0444,"dy":0.0017,"dx":0.0017,"nx":28,"ny":28,"refTime":"2024-02-13T03:00:00:Z","depth":0,"parameterNumber":2,"parameterNumberName":"U-component_of_WINDS"},"data":[0,0,0,0,0,0,0,0,0,0,0,0,0,0,0,0,0,0,0,0,0,0,0,0,0,0,0,0,0,0,0,0,0,0,0,0,0,0,0,0,0,0,0,0,0,0,0,0,0,0,0,0,0,0,0,0,0,0,8.0922,8.0922,0,8.0921,8.0921,8.0921,8.0816,8.0813,8.081,8.0808,8.0807,8.0809,8.0812,0,0,0,0,0,0,0,0,0,0,0,0,0,8.0832,8.0834,8.0922,8.0922,8.0922,8.0921,8.0921,8.0921,8.0816,8.0813,8.081,8.0806,8.0806,8.0809,8.0812,0,0,0,0,0,0,0,0,0,0,0,0,0,8.0855,8.0835,8.0922,8.0869,8.0865,8.0921,8.0921,8.0921,8.0817,8.0813,8.0809,8.0805,8.0805,8.0809,8.0813,8.0919,0,0,8.0824,8.0826,0,0,0,0,0,0,0,0,8.0854,8.0859,8.0877,8.0873,8.0868,8.0864,8.0889,8.092,8.0818,8.0835,8.0808,8.0803,8.0829,8.0831,8.084,8.0919,8.0919,8.0825,8.0827,8.0829,8.083,0,0,0,0,0,0,0,8.0853,8.0858,8.0921,8.0877,8.0872,8.0846,8.0845,8.0895,8.0855,8.0833,8.0826,8.0827,8.0826,8.0837,8.0839,8.0919,8.0825,8.0828,8.083,8.0832,8.1088,8.1093,0,0,0,0,0,0,8.0858,8.0858,8.0921,8.0921,8.0851,8.0851,8.0849,8.087,8.0855,8.0848,8.0831,8.0822,8.0832,8.0835,8.0839,8.0965,8.0829,8.0832,8.0834,8.1084,8.1089,8.1094,0,0,0,0,0,0,8.0857,8.0865,8.0921,8.0887,8.0893,8.0857,8.088,8.0872,8.0882,8.0853,8.0845,8.0849,8.0829,8.0833,8.0901,8.0963,8.0834,8.0837,8.1079,8.1086,8.1092,8.1217,0,0,0,0,0,0,8.0855,8.0865,8.0905,8.0889,8.0895,8.0983,8.0884,8.0875,8.0889,8.0878,8.0867,8.0862,8.0826,8.0896,8.0904,8.0966,8.084,8.1073,8.1082,8.109,8.1207,8.1227,8.1245,0,0,0,0,0,8.0852,8.0939,8.0908,8.0916,8.0944,8.0987,8.099,8.0948,8.0894,8.0935,8.0916,8.0862,8.0955,8.0903,8.0912,8.0977,8.1069,8.1079,8.1089,8.1199,8.1223,8.1244,0,0,0,0,0,0,8.0963,8.0936,8.0901,8.0986,8.099,8.0969,8.1019,8.0975,8.0993,8.0982,8.0928,8.0927,8.1004,8.0996,8.0939,8.108,8.1002,8.1015,8.1083,8.1106,8.1124,8.1125,8.0844,0,0,0,0,0,8.0997,8.1035,8.1009,8.1087,8.1091,8.1055,8.1072,8.1039,8.1041,8.1042,8.1028,8.1032,8.1062,8.1083,8.1108,8.1205,8.1203,8.1254,8.1272,8.1288,8.13,8.1353,8.1377,8.1128,8.1128,8.1128,0,0,8.1069,8.1059,8.1085,8.1109,8.1108,8.1149,8.1057,8.1103,8.1133,8.1048,8.1112,8.1102,8.1103,8.1187,8.1222,8.1183,8.1368,8.1301,8.1313,8.1317,8.1366,8.139,8.1411,8.1135,8.1133,8.1132,0,0,8.122,8.1215,8.1281,8.1283,8.1283,8.1259,8.1275,8.1262,8.1252,8.1315,8.1254,8.1288,8.134,8.1345,8.1354,8.1509,8.1461,8.1519,8.1617,8.167,8.169,8.1707,8.1766,8.1787,8.1531,8.1531,8.1531,0,8.1309,8.1368,8.132,8.1372,8.1385,8.1311,8.1378,8.1381,8.139,8.1401,8.1356,8.1422,8.1417,8.1502,8.1541,8.1549,8.1567,8.1521,8.1691,8.1707,8.1723,8.1778,8.18,8.1538,8.1537,8.1537,8.1536,0,8.1479,8.1521,8.1574,8.1586,8.1605,8.1664,8.1625,8.165,8.1616,8.1596,8.1663,8.1654,8.1679,8.1696,8.1662,8.1777,8.1752,8.17,8.1621,8.1755,8.1806,8.1826,8.1549,8.1546,8.1544,8.1542,0,0,8.1702,8.1688,8.1708,8.1714,8.1709,8.1741,8.1797,8.1822,8.1845,8.1853,8.1901,8.1948,8.19,8.191,8.1876,8.1922,8.205,8.1864,8.1863,8.1902,8.2179,8.2221,8.2247,8.2017,8.2021,8.2024,8.218,0,8.1852,8.1948,8.1907,8.2007,8.2047,8.1977,8.2026,8.2029,8.2013,8.2045,8.2026,8.2062,8.1994,8.2,8.2042,8.2026,8.2105,8.2013,8.2062,8.2065,8.2068,8.2273,8.2317,8.2465,8.22,8.2203,8.2205,0,8.2039,8.2058,8.2163,8.2154,8.2169,8.2214,8.2234,8.2264,8.2267,8.2252,8.2265,8.2221,8.2276,8.2196,8.2273,8.2211,8.2228,8.2223,8.2228,8.2233,8.2145,8.2287,8.2511,8.2535,8.2236,8.2233,8.2231,0,8.2196,8.2246,8.2316,8.2323,8.2313,8.2347,8.2344,8.2342,8.2361,8.2378,8.239,8.2413,8.2427,8.2446,8.241,8.2355,8.2493,8.2409,8.2484,8.2486,8.2519,8.2518,8.2753,8.2525,8.2525,8.2524,8.2524,0,8.237,8.2438,8.2387,8.243,8.2505,8.2457,8.2532,8.2521,8.2521,8.2562,8.2501,8.2541,8.2489,8.2524,8.2496,8.2566,8.2571,8.2562,8.2555,8.257,8.2571,8.2582,8.2572,8.253,8.2529,8.2528,8.2527,0,8.2558,8.2527,8.2599,8.2584,8.2582,8.2638,8.2625,8.2665,8.2645,8.2697,8.2707,8.2675,8.2713,8.2679,8.2714,8.2695,8.279,8.2765,8.279,8.2784,8.2862,8.2857,8.3115,8.3148,8.2897,8.2899,8.2901,0,8.2673,8.2724,8.2715,8.2739,8.274,8.2778,8.2797,8.2751,8.2773,8.2781,8.2821,8.2854,8.2878,8.2943,8.2923,8.2951,8.2929,8.3017,8.2933,8.2947,8.2934,8.2933,8.2939,8.3036,8.3039,8.3041,8.3043,0,8.2881,8.2864,8.2893,8.2918,8.2942,8.2959,8.2972,8.2994,8.2948,8.2976,8.3014,8.3034,8.3071,8.3106,8.3127,8.3125,8.3078,8.3069,8.3089,8.3107,8.312,8.3117,8.284,8.3064,8.3062,8.3061,8.306,8.3059,8.3039,8.3082,8.3083,8.3119,8.3123,8.3137,8.3175,8.3159,8.3191,8.3219,8.3189,8.3238,8.324,8.3265,8.3268,8.3305,8.3268,8.3295,8.3303,8.3311,8.3325,8.3112,8.3308,8.3308,8.3307,8.3307,8.3306,0,8.3247,8.3245,8.3278,8.3298,8.3326,8.3278,8.329,8.3317,8.336,8.3366,8.3392,8.3438,8.3471,8.3455,8.3484,8.3517,8.3497,8.3527,8.3526,8.3527,8.3354,8.3336,8.3543,8.3543,8.3543,8.3543,8.3543,8.3543,8.3359,8.3431,8.3414,8.3487,8.3484,8.3531,8.3542,8.3555,8.356,8.3614,8.3642,8.3631,8.3628,8.3657,8.3686,8.368,8.3695,8.3734,8.3722,8.3561,8.3538,8.3516,8.3499,8.3737,8.3737,8.3891,8.3892,8.3894]},{"header":{"parameterUnit":"m.s-1","parameterCategory":1,"la1":30.2991,"la2":30.254,"lo1":-89.0895,"lo2":-89.0444,"dy":0.0017,"dx":0.0017,"nx":28,"ny":28,"refTime":"2024-02-13T03:00:00:Z","depth":0,"parameterNumber":3,"parameterNumberName":"V-component_of_WINDS"},"data":[0,0,0,0,0,0,0,0,0,0,0,0,0,0,0,0,0,0,0,0,0,0,0,0,0,0,0,0,0,0,0,0,0,0,0,0,0,0,0,0,0,0,0,0,0,0,0,0,0,0,0,0,0,0,0,0,0,0,-0.1508,-0.1506,0,-0.1335,-0.1333,-0.1331,-0.1308,-0.131,-0.1312,-0.1313,-0.1131,-0.1124,-0.1118,0,0,0,0,0,0,0,0,0,0,0,0,0,-0.1815,-0.1809,-0.1508,-0.1506,-0.1504,-0.1336,-0.1333,-0.1331,-0.1308,-0.131,-0.1312,-0.1314,-0.1133,-0.1125,-0.1117,0,0,0,0,0,0,0,0,0,0,0,0,0,-0.1666,-0.1808,-0.1509,-0.1472,-0.1468,-0.1336,-0.1333,-0.133,-0.1308,-0.131,-0.1313,-0.1315,-0.1135,-0.1126,-0.1116,-0.1008,0,0,-0.1087,-0.1083,0,0,0,0,0,0,0,0,-0.1674,-0.1654,-0.148,-0.1475,-0.1469,-0.1346,-0.1374,-0.1222,-0.1307,-0.1368,-0.1313,-0.1316,-0.12,-0.1185,-0.1147,-0.0999,-0.0991,-0.1086,-0.108,-0.1076,-0.1074,0,0,0,0,0,0,0,-0.1685,-0.1662,-0.144,-0.1477,-0.1471,-0.1464,-0.1445,-0.1345,-0.1272,-0.1363,-0.1361,-0.1341,-0.1197,-0.1156,-0.1143,-0.0988,-0.1086,-0.1078,-0.1072,-0.1068,-0.0744,-0.0741,0,0,0,0,0,0,-0.1702,-0.1671,-0.1445,-0.1435,-0.158,-0.1456,-0.1435,-0.1383,-0.1273,-0.1259,-0.1339,-0.1341,-0.1172,-0.1154,-0.1136,-0.1003,-0.1076,-0.1067,-0.1062,-0.0747,-0.0743,-0.074,0,0,0,0,0,0,-0.1709,-0.1682,-0.1452,-0.1552,-0.1522,-0.1448,-0.1389,-0.1378,-0.1337,-0.1255,-0.1241,-0.1311,-0.1173,-0.115,-0.104,-0.0996,-0.1063,-0.1054,-0.075,-0.0746,-0.0742,-0.0734,0,0,0,0,0,0,-0.1718,-0.1685,-0.1644,-0.1551,-0.1517,-0.1361,-0.1387,-0.1373,-0.1321,-0.1322,-0.1225,-0.1211,-0.1173,-0.1055,-0.1031,-0.0984,-0.1047,-0.0754,-0.0748,-0.0743,-0.0738,-0.073,-0.0723,0,0,0,0,0,-0.1729,-0.1647,-0.1642,-0.1614,-0.1464,-0.1358,-0.1338,-0.1297,-0.1318,-0.1275,-0.1223,-0.1215,-0.1005,-0.1044,-0.1017,-0.0966,-0.0756,-0.075,-0.0744,-0.0741,-0.0732,-0.0724,0,0,0,0,0,0,-0.1733,-0.1634,-0.1627,-0.1513,-0.1445,-0.1354,-0.1299,-0.1288,-0.1211,-0.1214,-0.1165,-0.1143,-0.1036,-0.099,-0.1035,-0.0856,-0.0882,-0.087,-0.089,-0.088,-0.0873,-0.0886,-0.1039,0,0,0,0,0,-0.1721,-0.1645,-0.1562,-0.1469,-0.1435,-0.1374,-0.1326,-0.13,-0.1226,-0.1197,-0.1136,-0.1064,-0.0982,-0.0928,-0.0848,-0.0732,-0.071,-0.0683,-0.0676,-0.0671,-0.066,-0.0597,-0.0584,-0.0719,-0.0719,-0.0719,0,0,-0.1695,-0.1632,-0.1586,-0.1468,-0.1412,-0.1334,-0.1349,-0.1264,-0.1205,-0.1183,-0.1077,-0.1031,-0.0946,-0.0834,-0.0781,-0.0792,-0.0619,-0.0662,-0.0659,-0.0651,-0.0589,-0.0576,-0.0565,-0.0715,-0.0716,-0.0716,0,0,-0.1608,-0.1552,-0.1469,-0.1413,-0.1329,-0.1289,-0.1269,-0.1181,-0.115,-0.1043,-0.1026,-0.0954,-0.0813,-0.0755,-0.0706,-0.0599,-0.0588,-0.0574,-0.0535,-0.0474,-0.0463,-0.0454,-0.0416,-0.0403,-0.0564,-0.0564,-0.0564,0,-0.1585,-0.1467,-0.1428,-0.1345,-0.1294,-0.1273,-0.1188,-0.1135,-0.1028,-0.0993,-0.1008,-0.0832,-0.0774,-0.0648,-0.0622,-0.0583,-0.0559,-0.0584,-0.0468,-0.0458,-0.0449,-0.0412,-0.0398,-0.0563,-0.0563,-0.0563,-0.0563,0,-0.1444,-0.1363,-0.1306,-0.1207,-0.1149,-0.1065,-0.1012,-0.0959,-0.0939,-0.0897,-0.0789,-0.0719,-0.0625,-0.0593,-0.0571,-0.0464,-0.0474,-0.0479,-0.0504,-0.0435,-0.04,-0.0386,-0.0561,-0.0562,-0.0562,-0.0562,0,0,-0.1354,-0.1235,-0.1215,-0.117,-0.1076,-0.1012,-0.0928,-0.0838,-0.0793,-0.072,-0.0649,-0.0531,-0.0536,-0.0481,-0.0453,-0.0399,-0.032,-0.0411,-0.0408,-0.0397,-0.0199,-0.0196,-0.0181,-0.0313,-0.031,-0.0308,-0.0206,0,-0.1256,-0.1107,-0.107,-0.0943,-0.0867,-0.0847,-0.0774,-0.0708,-0.0667,-0.0596,-0.055,-0.0468,-0.048,-0.0447,-0.0393,-0.0341,-0.028,-0.0348,-0.0245,-0.0242,-0.0268,-0.0162,-0.0158,-0.0066,-0.0192,-0.019,-0.0188,0,-0.1122,-0.1049,-0.0915,-0.0833,-0.08,-0.0735,-0.0651,-0.0583,-0.0509,-0.0482,-0.0423,-0.04,-0.0311,-0.0342,-0.0219,-0.0267,-0.0222,-0.0191,-0.0186,-0.0175,-0.0211,-0.0149,-0.0035,-0.0022,-0.0166,-0.0168,-0.0169,0,-0.107,-0.0939,-0.0842,-0.0804,-0.0706,-0.0661,-0.0617,-0.0545,-0.0494,-0.042,-0.0386,-0.0302,-0.0256,-0.019,-0.0146,-0.0172,-0.0027,-0.0053,-0.0002,-0.0004,0.0028,0.0025,0.0149,0.0057,0.0057,0.0056,0.0056,0,-0.0965,-0.0885,-0.0818,-0.0759,-0.0667,-0.0625,-0.0535,-0.0491,-0.0427,-0.0359,-0.0335,-0.027,-0.0215,-0.0143,-0.0107,-0.0012,0.001,0.0033,0.0042,0.0031,0.0028,0.0061,0.0055,0.006,0.0059,0.0059,0.0058,0,-0.0893,-0.0845,-0.0738,-0.0655,-0.0632,-0.0569,-0.0497,-0.0438,-0.0397,-0.031,-0.0287,-0.0222,-0.0136,-0.0086,0.0024,0.0048,0.0153,0.016,0.0127,0.0131,0.0179,0.0173,0.0328,0.035,0.0244,0.0245,0.0245,0,-0.0829,-0.0767,-0.0678,-0.0631,-0.0588,-0.0512,-0.0461,-0.0417,-0.0364,-0.0275,-0.0227,-0.014,-0.0069,0.0068,0.0125,0.0209,0.0217,0.0265,0.023,0.0216,0.0216,0.0211,0.0218,0.0271,0.0272,0.0273,0.0274,0,-0.0722,-0.0702,-0.063,-0.055,-0.049,-0.0424,-0.0358,-0.0321,-0.0265,-0.0207,-0.0121,-0.0065,0.0045,0.013,0.0218,0.0264,0.0278,0.0284,0.03,0.0289,0.0268,0.0279,0.0143,0.028,0.028,0.0279,0.0279,0.0279,-0.0653,-0.0597,-0.0526,-0.0447,-0.0394,-0.0333,-0.0275,-0.0227,-0.0155,-0.0063,-0.0041,0.005,0.0123,0.0241,0.0289,0.0361,0.0353,0.0377,0.0383,0.0388,0.0388,0.0256,0.0378,0.0378,0.0378,0.0377,0.0377,0,-0.0545,-0.0499,-0.0427,-0.0337,-0.0275,-0.0269,-0.0197,-0.0145,-0.0066,0.0,0.0069,0.0168,0.0251,0.0315,0.0399,0.0445,0.0454,0.0466,0.0463,0.0473,0.0391,0.0368,0.0457,0.0457,0.0457,0.0457,0.0457,0.0457,-0.0482,-0.0389,-0.0361,-0.024,-0.0194,-0.0106,-0.0066,-0.001,0.0042,0.0151,0.0219,0.0259,0.0324,0.0414,0.049,0.0507,0.0536,0.0547,0.0565,0.0488,0.0479,0.0471,0.0449,0.0554,0.0554,0.064,0.0641,0.0642]}]]